Location: Elliott Corner
(37.4627°N, 119.7746°W)
Time: 23:12:59
(UTC+00:00)

Cosmos 1484 Rocket - Pass Details

Date: 10 September 2024
Orbit: 473 x 510 km, 97.6° (Epoch: 13 October)

Event Time Altitude Azimuth Distance (km) Brightness Sun altitude
Rises 12:38:08 0° 10° (N) 2,614 6.6 -12.4°
Reaches altitude 10° 12:40:13 10° 9° (N) 1,730 5.7 -12.0°
Maximum altitude 12:43:56 80° 284° (WNW) 524 2.6 -11.3°
Drops below altitude 10° 12:47:41 10° 197° (SSW) 1,731 5.1 -10.5°
Sets 12:49:46 0° 196° (SSW) 2,615 6.0 -10.1°
